Location: Unspecified
(0.0000°N, 0.0000°E)
Time: 07:32:35
(UTC+00:00)

Tiangong - Visible Passes

Search period start: 10 December 2025 00:00
Search period end: 20 December 2025 00:00
Orbit: 384 x 396 km, 41.5° (Epoch: 09 December)

Date Brightness Start Highest point End Pass type
(mag) Time Alt. Az. Time Alt. Az. Time Alt. Az.
11 Dec 0.0 19:33:31 10° SSW 19:34:57 21° S 19:34:57 21° S visible
12 Dec 0.2 18:36:49 10° S 18:38:32 14° SE 18:40:08 10° ESE visible
13 Dec -2.1 19:14:16 10° SW 19:17:25 69° NW 19:17:39 66° N visible
15 Dec 0.0 18:55:41 10° W 18:58:10 21° NW 19:00:12 12° N visible
16 Dec 0.8 04:51:26 10° NNE 04:52:13 11° NE 04:53:00 10° ENE visible
18 Dec -0.6 04:32:04 27° NNE 04:32:40 29° NE 04:35:30 10° ESE visible
19 Dec -0.9 05:09:15 16° W 05:11:10 28° SW 05:13:59 10° SSE visible
